Sacramento, CA

11:51 AM PST on February 14, 2016 (GMT -0800)
Sacramento Executive

Weather History for KSAC - November, 2013

Change the Weather History Date:

Sunday, November 3, 2013

  Actual Average Record
Temperature  
Mean Temperature 59 °F -  
Max Temperature 66 °F 70 °F 85 °F (1976)
Min Temperature 51 °F 46 °F 33 °F (1946)
Degree Days  
Heating Degree Days 6    
Cooling Degree Days 0    
Growing Degree Days 8 (Base 50)    
Moisture  
Dew Point 27 °F    
Average Humidity 31    
Maximum Humidity 40    
Minimum Humidity 22    
Precipitation  
Precipitation 0.00 in 0.06 in 0.82 in (1979)
Month to date precipitation 0.00 0.16  
Year to date precipitation 4.50 13.35  
Since 1 July precipitation 0.59  
Sea Level Pressure  
Sea Level Pressure 29.97 in    
Wind  
Wind Speed 16 mph (NNW)    
Max Wind Speed 24 mph    
Max Gust Speed 32 mph    
Visibility 10 miles    
Events      
T = Trace of Precipitation, MM = Missing Value Source: NWS Daily Summary

Daily Weather History Graph

Daily Weather History Graph

Search for Another Location

Airport or City:

Trip Planner

Search our weather history database for the weather conditions in past years. The results will help you decide how hot, cold, wet, or windy it might be!

Date:

Astronomy

Nov. 03, 2013 Rise Set
Actual Time 6:35 AM PST 5:03 PM PST
Civil Twilight 6:07 AM PST 5:31 PM PST
Nautical Twilight 5:35 AM PST 6:02 PM PST
Astronomical Twilight 5:04 AM PST 6:33 PM PST
Moon 6:44 AM PST (11/3) 5:23 PM PST (11/3)
Length of Visible Light 11h 23m
Length of Day
10h 28m
New Moon, 0% of the Moon is Illuminated
Nov 3
New Moon
Nov 9
First Quarter
Nov 17
Full
Nov 25
Last Quarter
Dec 2
New

Hourly Weather History & Observations

Time (PST) Temp. Dew Point Humidity Pressure Visibility Wind Dir Wind Speed Gust Speed Precip Events Conditions
12:53 AM 57.0 °F 33.1 °F 40% 29.95 in 10.0 mi NNW 12.7 mph - N/A   Clear
1:53 AM 57.9 °F 32.0 °F 37% 29.96 in 10.0 mi NNW 16.1 mph 27.6 mph N/A   Clear
1:53 AM 57.0 °F 30.0 °F 36% 29.96 in 10.0 mi NNW 21.9 mph 28.8 mph N/A   Clear
2:53 AM 55.0 °F 30.0 °F 38% 29.97 in 10.0 mi NW 15.0 mph 24.2 mph N/A   Clear
3:53 AM 54.0 °F 28.9 °F 38% 29.98 in 10.0 mi NNW 18.4 mph 31.1 mph N/A   Clear
4:53 AM 54.0 °F 27.0 °F 35% 29.98 in 10.0 mi NNW 17.3 mph 26.5 mph N/A   Clear
5:53 AM 52.0 °F 26.1 °F 37% 29.99 in 10.0 mi NNW 17.3 mph 27.6 mph N/A   Clear
6:53 AM 52.0 °F 26.1 °F 37% 29.99 in 10.0 mi NNW 11.5 mph 23.0 mph N/A   Clear
7:53 AM 54.0 °F 27.0 °F 35% 30.01 in 10.0 mi NNW 12.7 mph - N/A   Clear
8:53 AM 57.0 °F 27.0 °F 32% 30.02 in 10.0 mi NNW 18.4 mph 27.6 mph N/A   Clear
9:53 AM 59.0 °F 27.0 °F 29% 30.03 in 9.0 mi NNW 12.7 mph 21.9 mph N/A   Mostly Cloudy
10:27 AM 60.8 °F 24.8 °F 25% 30.03 in 10.0 mi NNW 24.2 mph 32.2 mph N/A   Partly Cloudy
10:53 AM 61.0 °F 25.0 °F 25% 30.03 in 10.0 mi North 23.0 mph 29.9 mph N/A   Clear
11:53 AM 62.1 °F 25.0 °F 24% 30.00 in 10.0 mi NNW 20.7 mph 28.8 mph N/A   Clear
12:53 PM 64.9 °F 26.1 °F 23% 29.98 in 10.0 mi NNW 21.9 mph 26.5 mph N/A   Clear
1:53 PM 64.0 °F 24.1 °F 22% 29.96 in 10.0 mi NNW 19.6 mph 27.6 mph N/A   Clear
2:53 PM 64.9 °F 25.0 °F 22% 29.94 in 10.0 mi NW 15.0 mph 25.3 mph N/A   Clear
3:53 PM 64.0 °F 25.0 °F 23% 29.93 in 10.0 mi NW 19.6 mph 25.3 mph N/A   Clear
4:53 PM 61.0 °F 25.0 °F 25% 29.93 in 10.0 mi NNW 18.4 mph 26.5 mph N/A   Clear
5:53 PM 59.0 °F 26.1 °F 28% 29.91 in 10.0 mi NNW 12.7 mph 18.4 mph N/A   Clear
6:53 PM 57.9 °F 27.0 °F 31% 29.92 in 10.0 mi NW 8.1 mph - N/A   Clear
7:53 PM 57.9 °F 28.0 °F 32% 29.92 in 10.0 mi NW 6.9 mph - N/A   Clear
8:53 PM 55.0 °F 28.9 °F 37% 29.92 in 10.0 mi WNW 6.9 mph - N/A   Clear
9:53 PM 54.0 °F 28.9 °F 38% 29.91 in 10.0 mi NW 11.5 mph - N/A   Clear
10:53 PM 54.0 °F 28.0 °F 37% 29.91 in 10.0 mi NW 11.5 mph - N/A   Clear